sat.trackr.live / text

‹ back to catalog

STARLINK-4809

NORAD 53857 · 2022-114AR

PAYLOAD ACTIVE UNKNOWN

§ Identity

Operator
Country
US
Launch date
2022-09-19
Launch site
AFETR
Launch vehicle
Mass (kg)
RCS (m²)

Purposes: comms

External: N2YO · Heavens-Above · Gunter

§ Orbital elements

Epoch: 2026-05-25T04:06:02.442240Z

Period
95.44 min
Inclination
53.2139°
Eccentricity
0.0001443
Mean motion
15.08823993 rev/d
Perigee alt
538.8 km
Apogee alt
540.8 km
Semi-major
6,917.9 km
B*
2.4542e-4
RAAN
310.3613°
Arg perigee
92.4803°
Mean anomaly
267.6354°
Rev number
20,452

§ Raw data

STARLINK-48091 53857U 22114AR  26145.17086160  .00003618  00000+0  24542-3 0  99922 53857  53.2139 310.3613 0001443  92.4803 267.6354 15.08823993204522

JSON: /api/v1/satellites/53857 · /tle

For live sub-satellite position, see the globe view (requires WebGL).

§ Visibility from observer

Set your observer location to see the next 7 days of passes ≥ 10°. The values pass through the URL so the page stays shareable.

No JS? Fill the form by hand. The geolocation button needs JavaScript.